Wind_Speed
6 6 6 6 7 7 7 7 7 7 7 6 5 5 5 6 6 7 7 7 6 7 7 6 7 6 7 7 7 7 8 8 8 8 8 8 8 8 8 9 9 8 8
6 7 6 7 7 7 7 8 8 7 7 6 6 6 6 6 7 8 7 7 7 7 7 6 7 7 7 7 8 8 9 9 9 9 9 9 9 9 9 10 10 10 9
6 6 6 7 7 7 8 8 7 6 7 7 8 8 7 7 7 7 7 7 7 7 6 6 7 6 7 7 8 9 9 10 10 10 10 10 10 10 11 11 11 11 10
5 6 7 7 7 7 7 7 6 6 7 7 8 8 8 8 7 7 7 8 8 8 7 7 7 7 7 8 9 10 10 10 10 10 10 11 11 11 11 12 12 12 11
6 6 6 7 7 7 7 7 7 7 7 8 8 7 7 8 7 7 8 8 9 9 9 9 8 8 8 8 9 10 11 11 11 10 11 11 11 12 12 13 13 13 12
6 6 5 6 6 6 6 7 7 7 7 7 7 7 7 7 7 8 8 8 9 10 10 9 9 8 8 9 9 10 10 11 11 11 11 12 12 12 12 14 14 14 14
5 6 5 5 4 5 5 6 6 7 6 6 6 7 7 7 7 8 8 9 9 10 10 10 9 9 9 9 9 9 9 11 12 12 12 12 12 12 13 13 13 14 14
5 5 5 4 4 4 5 5 5 5 6 6 6 6 6 7 8 8 9 9 9 10 9 10 10 10 10 10 10 10 10 11 11 12 12 12 13 14 14 14 14 14 15
5 4 4 4 4 4 4 4 5 5 5 5 5 6 6 7 8 8 8 9 9 9 10 10 11 11 11 10 10 9 10 10 11 12 11 11 13 14 15 15 15 15 15
4 4 4 4 4 4 4 4 4 5 5 6 6 7 7 7 7 7 7 8 8 9 9 9 10 10 11 11 10 10 10 11 12 12 12 12 12 13 14 14 15 15 15
4 4 4 3 3 3 3 4 4 4 5 6 6 6 6 6 6 6 7 7 8 9 9 9 9 10 10 11 10 10 10 11 12 12 12 12 12 13 13 14 13 13 13
5 5 4 4 4 4 4 4 4 5 5 6 6 6 5 5 6 6 7 7 7 8 8 8 8 8 9 9 10 10 10 11 12 12 12 12 12 12 13 13 12 12 13
5 5 5 5 5 5 4 4 5 5 5 6 6 5 5 5 6 6 6 7 7 7 8 8 9 9 9 9 10 9 10 11 12 11 11 11 11 12 12 12 12 12 13
4 5 5 5 5 6 6 6 6 6 6 6 6 6 6 6 6 6 7 7 7 7 7 8 8 9 9 9 9 9 9 10 11 11 11 12 12 13 13 13 13 13 14
4 5 5 5 5 6 6 6 7 7 7 7 7 7 7 7 7 7 8 8 8 8 8 8 8 9 9 10 10 10 10 10 11 12 12 12 12 13 13 13 13 13 14
5 5 5 6 6 6 6 7 7 7 7 7 8 8 8 8 8 8 8 9 9 9 9 9 8 9 9 10 10 10 10 11 12 11 11 12 12 12 13 13 14 14 14
5 5 6 6 6 7 7 8 8 7 7 8 8 9 9 9 9 9 9 9 9 9 9 9 9 9 10 10 10 10 10 10 10 10 11 11 12 13 13 13 14 14 15
6 6 6 6 7 7 8 9 9 9 9 9 9 9 10 10 10 10 9 9 9 9 9 9 9 9 10 10 9 9 10 10 10 11 11 11 12 12 13 14 14 14 15
6 6 6 6 7 8 8 9 9 9 9 10 10 10 10 11 11 11 10 10 10 10 9 9 10 10 11 11 10 10 10 10 10 11 11 12 12 13 13 14 14 15 15
7 7 7 7 8 9 9 10 10 10 10 10 11 12 12 12 12 12 11 11 11 11 11 11 11 12 12 12 11 12 12 12 12 12 12 12 13 13 14 14 14 14 14
8 8 8 8 9 10 10 11 11 11 11 11 11 12 13 13 13 12 12 12 12 12 11 11 12 12 12 13 13 13 13 13 13 13 13 13 13 14 14 14 14 15 15
10 10 9 10 10 10 12 12 12 12 12 12 12 13 13 13 13 13 13 13 13 13 13 13 13 13 13 13 13 13 13 13 14 13 13 14 14 14 14 14 14 15 15
10 11 11 11 11 11 12 12 12 13 13 14 14 14 14 14 14 14 14 14 14 14 14 14 14 14 14 14 14 13 14 14 14 14 15 15 14 15 14 14 15 15 15
11 11 11 12 12 12 13 14 14 14 14 14 15 15 15 15 15 15 15 15 15 15 14 14 14 14 14 14 14 14 14 15 15 15 15 15 15 15 15 15 15 15 15
12 12 12 13 14 14 14 14 15 15 16 15 15 16 16 16 16 15 15 15 15 15 15 15 15 15 15 15 15 15 15 15 15 15 16 16 16 15 15 15 14 15 15
13 13 13 14 14 15 15 16 16 16 16 16 17 17 17 16 16 16 16 16 16 16 16 16 16 16 16 16 16 16 16 16 16 17 16 16 16 16 16 16 16 16 16
Wind_Direction
273 270 267 264 265 267 266 264 264 260 262 259 254 249 245 244 238 233 239 239 236 236 241 242 244 245 240 234 232 231 225 220 219 217 219 222 224 222 219 218 217 217 217
274 272 269 270 270 271 272 270 264 265 262 260 257 254 255 259 254 246 239 239 240 240 243 247 247 251 244 238 237 239 233 229 226 221 223 226 230 232 229 225 224 226 228
283 275 274 273 276 274 273 272 271 271 269 264 260 258 256 257 257 250 241 241 242 243 247 249 250 252 252 246 248 244 237 236 234 229 230 232 236 236 233 231 231 233 236
290 282 279 278 279 275 274 274 274 274 272 269 262 256 253 255 254 250 245 244 246 246 248 256 258 257 252 252 254 249 243 239 236 236 234 234 237 239 238 236 236 235 239
298 292 286 284 281 279 279 279 276 274 271 269 262 253 254 255 252 252 254 250 250 251 251 255 258 259 253 254 261 257 247 238 238 240 241 240 240 242 243 241 240 240 245
305 303 302 294 287 283 284 281 276 273 273 267 260 255 256 260 260 262 260 260 256 256 253 249 254 258 259 261 265 262 253 240 242 244 247 244 243 245 245 244 244 245 248
312 309 310 302 297 297 296 290 284 279 275 271 268 265 265 266 266 262 263 265 262 263 259 253 254 253 259 262 263 261 253 245 244 250 250 247 246 246 246 247 247 250 251
317 314 313 312 313 304 303 299 296 290 287 284 280 276 274 276 277 270 269 268 270 266 266 260 257 256 257 260 259 261 261 252 247 251 252 253 251 248 248 249 251 257 258
315 313 320 326 322 315 306 307 300 298 293 288 283 282 281 278 278 279 273 270 271 269 266 265 263 260 256 260 262 262 261 251 248 254 256 258 256 250 250 252 256 259 260
322 329 335 333 333 335 327 320 313 310 302 292 290 284 281 282 283 281 279 272 268 267 269 264 260 263 261 263 265 267 266 259 253 255 258 262 260 255 254 255 258 258 258
329 336 335 333 333 333 334 333 323 313 310 302 295 284 281 284 283 282 279 272 269 269 270 265 260 261 262 265 266 269 263 260 261 259 261 262 261 259 259 259 259 258 258
329 332 335 334 331 326 327 333 331 320 312 311 302 300 294 290 286 282 277 275 274 271 273 274 270 267 265 268 270 269 264 266 265 263 262 261 259 259 260 263 264 261 261
329 333 334 336 331 326 323 327 328 323 317 316 309 306 305 306 299 291 285 287 285 282 276 272 270 273 273 273 273 270 270 269 266 266 264 264 263 261 263 267 264 261 260
328 332 332 333 331 331 331 330 329 326 326 326 324 313 313 314 308 301 294 293 289 286 279 273 273 272 272 272 272 268 271 271 268 266 264 263 262 263 265 267 265 264 264
322 322 325 329 329 330 327 329 328 326 325 325 325 316 310 311 308 303 298 293 289 288 287 285 281 275 273 273 275 272 275 274 273 269 267 264 263 266 265 266 267 267 267
314 312 319 324 325 325 325 327 326 325 322 324 324 321 317 313 308 301 295 291 287 285 285 284 282 281 276 276 276 277 276 275 276 275 272 268 267 268 268 268 268 269 270
309 310 315 318 319 322 323 322 320 320 321 319 319 319 317 312 306 301 297 294 291 289 287 283 281 282 281 280 279 278 277 276 277 274 273 272 273 272 270 270 272 273 271
308 308 310 312 316 319 319 319 318 319 320 316 314 314 315 309 306 303 300 300 298 294 290 285 282 282 281 280 281 280 277 277 277 275 274 274 275 275 274 273 273 275 273
304 303 305 307 309 314 314 316 316 316 315 314 312 311 312 310 308 307 305 305 301 297 292 288 283 281 280 281 280 281 278 276 276 277 277 276 275 275 277 278 276 276 276
299 301 303 303 304 306 308 311 312 313 310 308 308 307 307 307 307 305 304 303 299 295 290 285 284 278 276 277 277 279 279 277 277 277 277 277 275 275 276 277 278 277 277
293 298 299 300 304 305 306 307 309 309 307 307 305 304 304 302 302 301 299 300 296 293 289 282 280 279 277 275 277 279 278 278 280 279 280 280 278 279 279 278 278 277 277
292 294 298 300 301 302 303 304 307 307 304 303 305 303 302 300 298 295 295 295 293 289 285 281 278 279 278 277 277 278 279 281 280 281 282 282 282 281 280 279 278 278 278
291 294 296 298 301 302 304 304 304 306 306 305 305 303 301 298 295 293 292 292 291 289 285 281 276 275 277 278 278 280 280 280 280 279 281 281 281 281 280 280 279 279 279
287 292 296 299 301 302 304 305 303 305 307 309 308 305 303 299 295 291 290 289 288 288 287 283 279 277 274 277 280 282 281 279 278 277 278 280 281 280 279 278 279 279 278
281 288 294 297 299 301 303 305 305 305 306 306 306 304 304 301 296 293 291 289 287 288 287 282 280 278 277 277 279 280 280 279 277 277 278 279 280 279 278 277 278 280 279
282 286 292 295 296 299 301 303 303 304 304 304 304 304 302 301 299 297 296 293 289 289 289 286 282 279 277 274 277 278 278 278 278 278 279 277 277 277 277 277 278 280 280
Height
5859 5859 5859 5859 5859 5859 5859 5859 5860 5860 5860 5860 5860 5861 5861 5862 5862 5863 5863 5864 5864 5864 5865 5865 5866 5866 5866 5867 5867 5868 5869 5869 5870 5871 5871 5872 5874 5875 5876 5878 5878 5880 5881
5858 5858 5858 5858 5858 5858 5858 5858 5859 5858 5859 5859 5859 5860 5860 5861 5861 5862 5862 5863 5863 5863 5864 5864 5865 5865 5865 5866 5866 5867 5867 5868 5868 5869 5870 5871 5872 5874 5875 5876 5877 5878 5879
5858 5857 5857 5857 5857 5857 5857 5857 5857 5857 5857 5858 5858 5859 5859 5860 5860 5860 5861 5861 5862 5862 5863 5863 5864 5864 5864 5864 5865 5865 5866 5867 5867 5868 5869 5870 5871 5872 5874 5875 5876 5877 5878
5857 5856 5856 5856 5856 5856 5856 5856 5856 5856 5856 5857 5857 5857 5858 5858 5859 5859 5860 5860 5861 5861 5862 5862 5862 5862 5862 5863 5863 5863 5864 5865 5866 5867 5868 5869 5870 5871 5872 5873 5875 5876 5877
5856 5856 5855 5855 5855 5855 5855 5855 5855 5855 5855 5855 5855 5856 5856 5857 5857 5858 5858 5859 5859 5860 5860 5861 5861 5861 5861 5861 5861 5861 5861 5862 5864 5865 5867 5868 5868 5869 5870 5872 5873 5874 5875
5855 5855 5854 5854 5854 5853 5853 5853 5854 5853 5854 5854 5854 5855 5855 5855 5856 5856 5857 5857 5858 5858 5859 5859 5859 5860 5860 5860 5860 5859 5858 5859 5862 5863 5865 5866 5867 5867 5868 5870 5871 5872 5873
5855 5854 5854 5853 5853 5852 5852 5853 5852 5852 5852 5852 5853 5853 5854 5854 5854 5855 5855 5855 5856 5856 5857 5857 5858 5858 5858 5858 5859 5858 5858 5858 5860 5862 5863 5864 5865 5866 5866 5867 5869 5870 5871
5854 5853 5853 5852 5852 5852 5852 5851 5851 5851 5851 5851 5852 5852 5852 5853 5853 5853 5853 5854 5854 5854 5855 5855 5856 5856 5857 5857 5857 5857 5857 5857 5859 5860 5861 5862 5863 5863 5864 5865 5866 5867 5868
5853 5853 5852 5852 5852 5851 5851 5851 5850 5850 5850 5850 5851 5851 5851 5851 5851 5852 5852 5852 5852 5853 5853 5853 5854 5854 5854 5855 5855 5856 5856 5856 5857 5858 5859 5860 5860 5861 5862 5863 5864 5865 5866
5852 5852 5852 5851 5851 5851 5850 5850 5850 5849 5849 5849 5850 5850 5850 5850 5850 5850 5850 5851 5851 5851 5851 5851 5851 5852 5852 5853 5853 5854 5854 5855 5856 5856 5857 5857 5858 5859 5859 5860 5861 5862 5863
5852 5852 5851 5851 5851 5851 5850 5850 5849 5849 5849 5849 5848 5848 5849 5849 5849 5849 5849 5849 5849 5849 5849 5850 5850 5850 5851 5851 5851 5852 5852 5853 5854 5854 5855 5855 5856 5856 5857 5858 5858 5859 5860
5852 5851 5851 5851 5850 5850 5850 5849 5849 5849 5848 5848 5848 5848 5847 5847 5848 5847 5847 5847 5847 5848 5848 5848 5848 5848 5849 5849 5849 5850 5850 5851 5851 5852 5852 5853 5853 5854 5855 5855 5856 5856 5857
5851 5851 5851 5850 5850 5849 5849 5849 5848 5848 5848 5847 5847 5847 5846 5846 5846 5846 5846 5846 5846 5846 5846 5846 5846 5847 5847 5847 5847 5848 5848 5848 5849 5849 5850 5851 5851 5851 5852 5853 5853 5854 5855
5851 5850 5850 5850 5849 5849 5849 5848 5848 5848 5847 5847 5846 5846 5845 5845 5845 5845 5845 5845 5844 5844 5844 5844 5844 5845 5845 5845 5845 5846 5846 5846 5847 5847 5848 5848 5849 5849 5850 5850 5851 5851 5852
5850 5850 5850 5849 5849 5849 5848 5848 5847 5847 5846 5846 5845 5845 5844 5844 5844 5843 5843 5843 5843 5843 5843 5843 5843 5843 5843 5843 5844 5844 5844 5844 5845 5845 5845 5846 5846 5847 5847 5847 5848 5848 5849
5850 5850 5849 5849 5848 5848 5847 5847 5847 5846 5845 5845 5844 5843 5843 5842 5842 5841 5841 5841 5841 5841 5841 5841 5841 5841 5841 5841 5841 5842 5842 5842 5842 5842 5843 5843 5844 5844 5844 5844 5845 5845 5846
5849 5849 5849 5848 5848 5847 5847 5846 5846 5845 5845 5844 5843 5842 5841 5841 5840 5840 5840 5839 5839 5839 5839 5839 5839 5839 5839 5839 5839 5839 5840 5840 5840 5840 5840 5841 5841 5841 5841 5842 5842 5842 5842
5848 5848 5848 5847 5847 5847 5846 5845 5845 5844 5843 5843 5842 5841 5841 5840 5839 5838 5838 5838 5837 5837 5837 5837 5837 5837 5837 5837 5837 5837 5837 5838 5838 5838 5838 5838 5838 5838 5838 5838 5839 5839 5839
5848 5847 5847 5847 5846 5846 5845 5844 5844 5843 5842 5841 5841 5840 5839 5839 5837 5837 5837 5836 5836 5835 5835 5835 5835 5835 5835 5835 5835 5835 5835 5835 5835 5835 5835 5835 5835 5835 5835 5835 5835 5836 5836
5847 5846 5846 5846 5845 5844 5844 5843 5842 5841 5841 5840 5839 5838 5837 5837 5836 5835 5834 5834 5833 5833 5833 5832 5832 5832 5832 5832 5832 5832 5832 5832 5832 5832 5832 5832 5832 5832 5832 5832 5832 5832 5832
5846 5845 5845 5844 5843 5843 5842 5841 5841 5840 5839 5838 5837 5836 5835 5834 5833 5833 5832 5831 5831 5830 5830 5830 5830 5829 5829 5829 5829 5829 5829 5829 5829 5829 5829 5829 5829 5829 5829 5829 5829 5829 5829
5844 5844 5843 5842 5842 5841 5840 5839 5839 5838 5837 5836 5835 5834 5833 5832 5831 5830 5830 5829 5828 5828 5827 5827 5827 5826 5826 5826 5826 5826 5826 5827 5826 5826 5826 5826 5825 5825 5825 5825 5825 5826 5826
5842 5842 5841 5840 5840 5839 5838 5837 5836 5835 5834 5833 5832 5831 5830 5828 5828 5827 5826 5826 5825 5824 5824 5823 5823 5823 5823 5823 5823 5823 5823 5823 5823 5823 5822 5822 5822 5822 5822 5822 5822 5822 5822
5840 5839 5838 5838 5837 5836 5836 5835 5834 5832 5831 5830 5829 5828 5826 5825 5824 5823 5823 5822 5821 5821 5820 5820 5819 5819 5819 5819 5819 5819 5819 5819 5819 5819 5819 5819 5819 5819 5819 5818 5818 5818 5818
5838 5837 5836 5836 5835 5834 5833 5832 5831 5830 5828 5827 5826 5824 5823 5822 5820 5820 5819 5818 5818 5817 5816 5816 5815 5815 5816 5816 5815 5815 5815 5815 5815 5816 5816 5815 5815 5815 5815 5815 5815 5815 5814
5835 5834 5834 5833 5832 5831 5830 5829 5828 5826 5825 5824 5822 5821 5819 5818 5817 5816 5815 5814 5814 5813 5812 5812 5812 5811 5811 5812 5812 5812 5812 5812 5812 5812 5812 5812 5811 5811 5811 5811 5811 5811 5810